Weather History for Watford City, ND

Change the Weather History Date:

Friday, June 28, 2013

  Actual Average (KISN) Record (KISN)
Temperature  
Mean Temperature 66 °F 67 °F  
Max Temperature 78 °F 81 °F 101 °F (1931)
Min Temperature 53 °F 53 °F 38 °F (1999)
Degree Days  
Heating Degree Days 0 2  
Month to date heating degree days 116  
Since 1 June heating degree days 116  
Since 1 July heating degree days 8990  
Cooling Degree Days 0 4  
Month to date cooling degree days 59  
Year to date cooling degree days 72  
Since 1 June cooling degree days 59  
Growing Degree Days 16 (Base 50)    
Moisture  
Dew Point 55 °F    
Average Humidity 68    
Maximum Humidity 94    
Minimum Humidity 42    
Precipitation  
Precipitation 0.00 in 0.09 in 1.68 in (1952)
Month to date precipitation 2.35  
Year to date precipitation 6.96  
Sea Level Pressure  
Sea Level Pressure 30.13 in    
Wind  
Wind Speed 8 mph (WNW)    
Max Wind Speed 18 mph    
Max Gust Speed 26 mph    
Visibility 10 miles    
Events      
T = Trace of Precipitation, MM = Missing Value Source: NWS Daily Summary

Daily Weather History Graph

Daily Weather History Graph

Search for Another Location

Airport:

Trip Planner

Search our weather history database for the weather conditions in past years. The results will help you decide how hot, cold, wet, or windy it might be!

Date:

Astronomy

Jun. 28, 2013 Rise Set
Actual Time 5:56 AM CDT 9:55 PM CDT
Civil Twilight 5:16 AM CDT 10:36 PM CDT
Nautical Twilight 4:19 AM CDT 11:32 PM CDT
Astronomical Twilight 2:47 AM CDT 1:03 AM CDT
Moon 12:27 AM CDT (6/28) 12:36 PM CDT (6/28)
Length of Visible Light 17h 20m
Length of Day
15h 58m
Waning Gibbous, 66% of the Moon is Illuminated
Jun 28
Waning Gibbous
Jun 29
Last Quarter
Jul 8
New
Jul 15
First Quarter
Jul 22
Full

Hourly Weather History & Observations

Time (CDT) Temp. Dew Point Humidity Pressure Visibility Wind Dir Wind Speed Gust Speed Precip Events Conditions
12:15 AM 59.0 °F 55.4 °F 88% 30.10 in 10.0 mi SW 5.8 mph - N/A   Clear
12:35 AM 59.0 °F 55.4 °F 88% 30.10 in 10.0 mi SW 5.8 mph - N/A   Clear
12:55 AM 59.0 °F 55.4 °F 88% 30.10 in 10.0 mi SW 5.8 mph - N/A   Clear
1:15 AM 57.2 °F 53.6 °F 88% 30.10 in 10.0 mi SSW 5.8 mph - N/A   Clear
1:35 AM 57.2 °F 53.6 °F 88% 30.10 in 10.0 mi SSW 5.8 mph - N/A   Clear
1:55 AM 57.2 °F 53.6 °F 88% 30.10 in 10.0 mi SSW 4.6 mph - N/A   Clear
2:15 AM 57.2 °F 53.6 °F 88% 30.10 in 10.0 mi SSW 5.8 mph - N/A   Clear
2:35 AM 57.2 °F 53.6 °F 88% 30.10 in 10.0 mi SSW 5.8 mph - N/A   Clear
2:55 AM 57.2 °F 53.6 °F 88% 30.11 in 10.0 mi SSW 4.6 mph - N/A   Clear
3:15 AM 57.2 °F 53.6 °F 88% 30.11 in 10.0 mi SW 8.1 mph - N/A   Clear
3:35 AM 55.4 °F 53.6 °F 94% 30.11 in 10.0 mi SW 5.8 mph - N/A   Clear
3:55 AM 55.4 °F 53.6 °F 94% 30.11 in 10.0 mi SSW 5.8 mph - N/A   Clear
4:15 AM 55.4 °F 53.6 °F 94% 30.11 in 10.0 mi SW 4.6 mph - N/A   Clear
4:35 AM 55.4 °F 53.6 °F 94% 30.12 in 10.0 mi SW 5.8 mph - N/A   Clear
4:55 AM 53.6 °F 51.8 °F 94% 30.12 in 10.0 mi SSW 5.8 mph - N/A   Clear
5:15 AM 53.6 °F 51.8 °F 94% 30.12 in 10.0 mi WSW 3.5 mph - N/A   Clear
5:35 AM 53.6 °F 51.8 °F 94% 30.12 in 10.0 mi Calm Calm - N/A   Clear
5:55 AM 53.6 °F 51.8 °F 94% 30.13 in 10.0 mi SW 3.5 mph - N/A   Clear
6:15 AM 53.6 °F 50.0 °F 88% 30.13 in 9.0 mi SW 4.6 mph - N/A   Clear
6:35 AM 53.6 °F 51.8 °F 94% 30.14 in 10.0 mi SSW 4.6 mph - N/A   Clear
6:55 AM 55.4 °F 53.6 °F 94% 30.14 in 7.0 mi SW 5.8 mph - N/A   Clear
8:15 AM 62.6 °F 57.2 °F 82% 30.16 in 10.0 mi SW 3.5 mph - N/A   Clear
8:35 AM 64.4 °F 57.2 °F 77% 30.16 in 10.0 mi West 4.6 mph - N/A   Clear
8:55 AM 66.2 °F 57.2 °F 73% 30.16 in 10.0 mi SW 3.5 mph - N/A   Clear
9:15 AM 68.0 °F 59.0 °F 73% 30.16 in 10.0 mi SW 4.6 mph - N/A   Clear
9:35 AM 68.0 °F 57.2 °F 68% 30.16 in 10.0 mi West 10.4 mph - N/A   Clear
9:55 AM 69.8 °F 59.0 °F 68% 30.16 in 10.0 mi WSW 6.9 mph - N/A   Clear
10:15 AM 71.6 °F 59.0 °F 64% 30.15 in 10.0 mi West 10.4 mph - N/A   Clear
10:35 AM 71.6 °F 59.0 °F 64% 30.15 in 10.0 mi WNW 10.4 mph - N/A   Clear
10:55 AM 71.6 °F 59.0 °F 64% 30.16 in 10.0 mi WNW 11.5 mph 17.3 mph N/A   Clear
11:15 AM 73.4 °F 59.0 °F 61% 30.15 in 10.0 mi WNW 11.5 mph 16.1 mph N/A   Clear
11:35 AM 73.4 °F 59.0 °F 61% 30.15 in 10.0 mi WNW 13.8 mph 19.6 mph N/A   Clear
11:55 AM 75.2 °F 57.2 °F 53% 30.15 in 10.0 mi WNW 11.5 mph 18.4 mph N/A   Clear
12:15 PM 75.2 °F 57.2 °F 53% 30.15 in 10.0 mi NW 11.5 mph 18.4 mph N/A   Clear
12:35 PM 75.2 °F 57.2 °F 53% 30.15 in 10.0 mi NW 10.4 mph - N/A   Clear
12:55 PM 75.2 °F 55.4 °F 50% 30.15 in 10.0 mi NW 12.7 mph 16.1 mph N/A   Clear
1:15 PM 77.0 °F 57.2 °F 50% 30.14 in 10.0 mi NW 11.5 mph - N/A   Clear
1:35 PM 77.0 °F 55.4 °F 47% 30.14 in 10.0 mi NW 15.0 mph 19.6 mph N/A   Clear
1:55 PM 77.0 °F 57.2 °F 50% 30.14 in 10.0 mi NW 17.3 mph - N/A   Partly Cloudy
2:15 PM 77.0 °F 55.4 °F 47% 30.13 in 10.0 mi NW 18.4 mph - N/A   Clear
2:35 PM 77.0 °F 55.4 °F 47% 30.13 in 10.0 mi NW 15.0 mph - N/A   Partly Cloudy
2:55 PM 77.0 °F 55.4 °F 47% 30.12 in 10.0 mi NNW 17.3 mph 20.7 mph N/A   Partly Cloudy
3:15 PM 77.0 °F 57.2 °F 50% 30.13 in 10.0 mi NNW 15.0 mph 21.9 mph N/A   Partly Cloudy
3:35 PM 77.0 °F 55.4 °F 47% 30.13 in 10.0 mi NNW 18.4 mph 24.2 mph N/A   Clear
3:55 PM 78.8 °F 53.6 °F 42% 30.12 in 10.0 mi NW 16.1 mph 23.0 mph N/A   Clear
4:15 PM 77.0 °F 53.6 °F 44% 30.12 in 10.0 mi NW 17.3 mph 26.5 mph N/A   Clear
4:35 PM 78.8 °F 53.6 °F 42% 30.12 in 10.0 mi WNW 15.0 mph 23.0 mph N/A   Clear
4:55 PM 78.8 °F 55.4 °F 44% 30.12 in 10.0 mi NNW 17.3 mph 23.0 mph N/A   Clear
5:15 PM 77.0 °F 53.6 °F 44% 30.12 in 10.0 mi NNW 17.3 mph - N/A   Clear
5:35 PM 77.0 °F 53.6 °F 44% 30.12 in 10.0 mi NNW 16.1 mph 23.0 mph N/A   Clear
5:55 PM 77.0 °F 55.4 °F 47% 30.12 in 10.0 mi North 16.1 mph 20.7 mph N/A   Clear
6:15 PM 77.0 °F 53.6 °F 44% 30.12 in 10.0 mi NNW 16.1 mph 21.9 mph N/A   Partly Cloudy
6:35 PM 77.0 °F 55.4 °F 47% 30.12 in 10.0 mi North 16.1 mph - N/A   Clear
6:55 PM 75.2 °F 55.4 °F 50% 30.12 in 10.0 mi North 16.1 mph - N/A   Clear
7:15 PM 75.2 °F 55.4 °F 50% 30.12 in 10.0 mi North 13.8 mph - N/A   Clear
7:35 PM 75.2 °F 53.6 °F 47% 30.12 in 10.0 mi North 15.0 mph - N/A   Clear
7:55 PM 73.4 °F 53.6 °F 50% 30.13 in 10.0 mi North 11.5 mph - N/A   Clear
8:15 PM 73.4 °F 51.8 °F 47% 30.13 in 10.0 mi North 10.4 mph - N/A   Clear
8:35 PM 71.6 °F 53.6 °F 53% 30.14 in 10.0 mi North 11.5 mph - N/A   Clear
8:55 PM 71.6 °F 53.6 °F 53% 30.14 in 10.0 mi North 6.9 mph - N/A   Clear
9:15 PM 68.0 °F 55.4 °F 64% 30.13 in 10.0 mi North 5.8 mph - N/A   Clear
9:35 PM 66.2 °F 53.6 °F 64% 30.13 in 10.0 mi North 4.6 mph - N/A   Clear
9:55 PM 62.6 °F 53.6 °F 72% 30.13 in 10.0 mi NNE 5.8 mph - N/A   Clear
10:15 PM 62.6 °F 53.6 °F 72% 30.13 in 10.0 mi Calm Calm - N/A   Clear
10:35 PM 60.8 °F 53.6 °F 77% 30.13 in 8.0 mi Calm Calm - N/A   Clear
10:55 PM 57.2 °F 53.6 °F 88% 30.13 in 7.0 mi SW 3.5 mph - N/A   Clear
11:15 PM 57.2 °F 51.8 °F 82% 30.13 in 9.0 mi SSW 3.5 mph - N/A   Clear
11:35 PM 55.4 °F 51.8 °F 88% 30.13 in 10.0 mi SSW 3.5 mph - N/A   Clear
11:55 PM 55.4 °F 51.8 °F 88% 30.13 in 8.0 mi Calm Calm - N/A   Clear